Wind_Speed
40 40 39 39 39 39 39 39 39 39 40 40 40 39 40 40 42 43 44 45 46 47 48 49 49 48 47 46 44 44 45 45 45 45 47 48 48 49 49 49 51 52 50
38 38 37 37 37 37 37 36 37 37 38 38 37 37 38 39 40 41 42 43 43 44 44 44 43 44 43 41 38 37 38 39 38 39 41 43 45 46 47 48 48 49 49
35 35 35 34 34 34 34 35 35 35 35 35 36 36 37 38 38 39 40 40 40 40 39 39 38 38 37 35 33 32 33 32 32 33 35 36 39 42 45 47 49 49 49
33 32 32 32 32 32 32 33 33 33 33 34 35 35 35 36 36 37 37 36 36 35 34 34 34 34 33 31 29 28 28 27 28 29 31 33 35 38 41 44 46 47 49
29 29 29 29 29 29 30 31 31 31 32 32 33 33 34 34 34 34 33 32 32 31 31 31 31 30 29 28 26 25 24 23 24 25 27 29 32 35 37 39 42 43 45
25 25 25 25 26 27 28 28 29 29 30 30 30 31 32 32 32 31 30 29 29 28 28 28 27 26 26 25 23 22 22 22 22 23 24 26 28 31 33 36 39 41 43
22 22 22 23 24 25 25 26 27 27 27 28 29 29 29 29 28 28 27 27 26 26 25 25 24 24 24 23 22 21 21 20 21 23 24 26 28 30 33 35 38 40 43
19 19 20 21 21 22 23 23 24 25 25 26 26 26 26 26 26 25 24 24 24 23 23 22 22 22 23 23 22 22 21 22 23 24 25 27 30 32 35 37 40 43 46
17 17 18 18 19 20 21 21 22 23 23 24 24 25 24 24 23 23 22 22 22 23 23 23 23 24 24 24 24 25 25 26 27 28 30 32 34 36 38 41 43 46 48
16 16 16 17 17 18 19 21 22 22 23 23 24 23 23 23 22 22 22 23 24 24 25 26 26 27 27 28 29 29 30 31 32 33 34 36 38 40 42 44 46 48 50
16 16 16 17 18 19 20 21 22 22 23 23 23 23 23 23 23 23 24 25 26 27 28 28 29 30 31 31 32 33 33 34 35 36 37 39 41 43 45 46 48 50 52
16 17 17 18 19 20 21 22 22 23 23 23 23 23 23 24 24 25 26 27 28 29 30 31 31 32 33 34 34 35 36 37 38 39 40 42 44 45 47 49 51 52 54
18 18 19 19 20 21 22 23 23 23 24 24 25 25 25 25 26 27 28 29 30 31 31 32 33 34 34 35 36 37 38 39 40 41 42 44 46 48 50 51 53 54 54
20 20 21 21 22 23 23 24 24 25 25 25 26 26 27 27 28 29 30 31 31 32 33 34 34 35 36 37 38 39 40 41 42 43 45 47 48 50 52 53 53 53 53
22 22 23 24 24 25 25 25 26 26 27 27 27 28 28 29 30 31 31 32 33 33 34 35 36 37 38 38 39 41 42 43 44 45 47 49 51 52 53 53 52 52 50
24 24 25 25 26 26 27 27 28 28 28 28 28 29 30 31 32 32 32 33 34 35 35 36 37 38 39 40 42 43 43 45 46 48 50 51 52 53 53 53 51 50 49
27 27 27 27 28 28 28 29 29 29 29 29 30 30 31 32 33 33 34 34 35 36 36 38 39 40 41 42 43 44 46 47 49 50 52 53 53 53 53 52 50 49 48
29 29 29 29 29 30 30 30 30 30 30 31 31 32 33 34 34 34 35 36 36 37 38 39 40 41 42 44 45 46 47 49 51 52 53 54 54 53 51 50 49 48 46
31 31 31 31 31 31 31 31 31 31 32 32 33 33 34 34 35 35 36 37 37 38 39 40 41 42 44 45 46 47 49 51 52 53 54 54 53 51 50 50 48 46 44
33 33 33 33 33 33 33 32 32 32 33 33 33 34 34 35 36 36 37 37 38 39 40 41 42 44 45 46 47 49 50 52 52 53 54 54 53 51 50 48 46 43 41
34 34 34 33 33 33 33 33 33 33 33 34 35 35 35 36 37 37 38 38 39 40 41 42 43 44 46 47 48 50 51 52 53 54 55 54 52 51 49 46 43 41 39
35 34 34 33 33 33 33 34 34 34 35 35 35 36 36 37 37 38 38 39 39 40 42 43 45 45 46 47 49 50 52 53 54 54 54 52 51 49 46 43 41 39 37
34 34 33 33 33 33 34 34 34 35 35 36 36 36 37 37 37 38 39 39 40 42 42 44 45 46 47 48 49 51 52 53 54 53 52 50 48 46 43 40 38 37 36
33 33 33 33 33 33 34 34 34 35 35 35 36 36 36 37 38 38 39 40 41 42 43 44 45 46 47 48 50 51 52 53 52 52 50 47 45 43 41 38 37 36 35
32 32 33 33 33 33 34 34 34 34 34 35 35 35 36 37 38 38 39 40 41 42 43 44 45 45 47 48 50 51 52 52 51 50 47 45 42 40 38 37 36 35 35
30 31 32 32 32 32 32 33 33 33 34 34 34 35 36 36 37 38 39 40 41 42 43 43 44 45 46 48 50 51 51 51 50 49 46 43 40 39 37 35 35 34 34
Wind_Direction
262 264 266 268 270 272 274 276 277 279 281 283 284 285 287 290 293 295 298 299 301 303 305 305 304 303 302 298 293 286 280 275 271 266 264 261 261 260 261 261 263 266 269
262 264 267 269 271 273 275 277 279 281 283 284 285 287 290 293 296 298 300 302 304 306 307 310 309 309 308 304 299 291 284 279 275 270 269 267 265 262 263 264 267 271 275
263 265 267 269 272 274 276 278 281 283 284 285 287 289 292 295 297 300 303 304 306 307 310 313 315 315 314 312 305 297 292 285 279 276 273 271 269 267 268 268 271 275 278
264 266 268 270 273 275 278 280 283 284 285 287 289 292 295 297 299 301 303 304 307 309 312 315 318 319 318 316 311 304 298 292 286 281 276 273 272 272 273 273 275 277 279
263 266 268 270 274 277 280 283 285 286 287 289 291 294 296 298 300 301 303 304 306 309 313 317 320 321 322 320 315 309 304 298 294 287 282 278 276 276 276 277 278 280 281
263 265 268 272 276 280 283 285 287 288 289 291 293 295 297 299 300 301 302 304 306 309 313 317 320 322 324 326 322 317 310 304 297 293 290 287 284 281 280 281 281 282 284
261 265 270 275 279 283 285 287 288 290 291 293 295 297 298 299 300 301 303 304 307 310 314 317 319 321 323 325 325 322 318 312 306 300 297 294 292 289 287 286 286 287 287
261 267 273 278 282 285 287 289 290 291 293 295 297 299 300 301 302 303 304 307 309 312 316 319 320 321 322 323 322 321 318 314 310 306 303 300 297 294 292 291 291 291 291
262 269 276 281 285 288 289 290 292 294 296 297 299 300 301 301 302 304 307 309 311 314 316 317 318 318 317 317 316 315 314 311 308 305 303 301 299 297 295 294 293 293 293
262 270 277 283 287 289 290 292 294 296 298 299 300 301 301 302 303 305 308 310 312 313 314 315 315 315 315 314 313 311 310 308 307 305 303 301 300 299 298 297 297 296 296
263 270 277 282 286 288 290 293 295 296 298 299 300 301 302 303 305 306 308 309 311 312 312 313 313 313 313 312 311 310 309 308 306 305 304 303 302 301 300 299 299 298 298
264 271 277 281 284 287 289 292 294 296 298 300 301 301 302 304 306 307 308 309 310 311 311 312 312 312 312 311 311 310 309 308 307 306 305 304 303 302 302 301 300 299 299
265 271 276 280 284 286 289 291 293 295 297 299 300 302 303 305 306 307 308 308 309 310 311 311 311 312 312 311 311 311 310 310 308 307 307 306 305 304 304 303 301 300 299
266 271 275 279 282 284 287 289 291 294 296 298 300 301 303 304 306 306 307 308 309 310 311 311 312 312 312 312 312 312 311 310 309 309 308 308 307 306 305 304 302 301 299
267 271 275 278 281 283 285 287 290 293 295 297 298 300 302 303 304 305 307 308 309 310 311 311 312 312 312 312 312 312 312 311 311 310 310 310 309 308 307 306 304 302 299
268 272 275 278 280 282 284 286 288 291 293 294 296 298 300 302 303 305 306 308 309 310 310 311 312 312 313 313 313 313 313 312 312 311 311 311 311 310 308 307 305 303 300
268 271 274 277 279 282 283 285 287 290 292 293 295 296 298 301 302 303 305 306 308 310 311 312 312 313 313 313 314 314 314 314 314 313 313 313 312 311 310 308 306 304 301
268 271 274 276 278 281 283 284 286 289 292 293 294 295 298 300 302 303 305 306 308 309 310 311 312 313 313 314 314 314 315 315 315 315 315 315 314 312 310 309 308 306 303
268 270 273 275 278 280 281 283 286 288 291 293 295 297 299 300 301 303 305 306 307 308 309 311 312 312 313 314 314 315 315 316 316 316 316 316 315 313 311 310 309 307 305
268 270 272 275 277 279 281 282 285 288 290 293 295 297 299 300 301 303 305 306 306 307 309 310 312 312 313 314 315 316 316 317 318 318 318 317 316 314 312 311 310 308 306
268 270 272 274 276 278 280 282 285 287 290 292 294 296 297 299 300 302 304 305 306 307 309 310 312 312 313 314 316 317 317 318 319 319 319 318 317 315 314 312 311 309 308
268 270 272 274 275 277 279 281 284 287 290 292 294 296 297 298 300 302 303 304 305 307 308 310 312 313 314 315 316 317 318 319 319 320 320 319 318 316 315 314 312 311 310
267 269 271 273 274 277 279 281 284 287 289 291 293 295 296 298 300 301 302 303 305 307 308 310 312 313 314 315 317 318 319 320 320 321 321 320 319 318 317 316 314 313 312
266 267 270 272 274 276 278 281 284 287 289 291 293 295 297 299 301 302 302 303 305 306 308 310 312 313 314 316 317 318 320 320 321 321 321 321 320 319 318 317 316 315 314
267 268 270 272 274 277 279 281 283 286 288 291 293 295 298 300 302 303 303 304 305 306 308 310 312 313 315 316 318 319 320 321 322 322 322 321 320 319 319 318 316 315 314
267 268 270 272 275 277 279 281 283 286 288 291 293 296 299 301 302 303 304 306 307 308 310 311 312 314 315 317 318 320 321 322 322 323 322 322 321 321 320 319 318 316 314
Height
5742 5742 5741 5741 5740 5739 5738 5737 5735 5733 5730 5728 5725 5722 5718 5714 5710 5706 5701 5695 5689 5682 5674 5666 5658 5650 5642 5635 5630 5625 5622 5621 5620 5623 5625 5626 5628 5631 5634 5636 5638 5639 5639
5732 5732 5732 5732 5731 5730 5729 5727 5725 5723 5721 5718 5715 5712 5708 5705 5700 5696 5690 5684 5678 5671 5664 5655 5647 5639 5632 5625 5620 5616 5613 5611 5611 5612 5614 5616 5617 5620 5622 5624 5626 5626 5626
5723 5723 5723 5723 5722 5721 5720 5718 5716 5714 5711 5708 5706 5702 5699 5695 5691 5686 5680 5674 5668 5662 5655 5647 5639 5631 5624 5618 5613 5609 5606 5604 5604 5604 5606 5607 5609 5611 5612 5614 5614 5614 5614
5715 5715 5715 5714 5714 5712 5711 5709 5707 5704 5702 5699 5696 5693 5690 5686 5681 5677 5671 5666 5660 5654 5647 5640 5633 5626 5619 5613 5608 5604 5602 5600 5599 5599 5599 5600 5601 5602 5603 5604 5604 5603 5603
5707 5707 5707 5706 5705 5704 5702 5700 5698 5695 5693 5690 5688 5684 5681 5677 5673 5668 5663 5658 5652 5647 5641 5634 5628 5622 5616 5610 5605 5601 5598 5596 5595 5594 5594 5594 5594 5595 5595 5594 5593 5592 5591
5699 5699 5699 5698 5697 5696 5694 5692 5689 5687 5685 5682 5679 5676 5672 5668 5664 5660 5655 5650 5646 5641 5635 5630 5624 5618 5613 5607 5603 5599 5596 5593 5591 5590 5589 5589 5588 5587 5586 5585 5583 5581 5579
5692 5692 5691 5690 5689 5687 5686 5684 5682 5679 5677 5674 5671 5668 5665 5661 5657 5653 5648 5644 5640 5635 5630 5625 5620 5615 5610 5605 5601 5597 5593 5590 5588 5587 5585 5583 5581 5580 5578 5576 5573 5571 5568
5685 5685 5684 5683 5682 5680 5678 5676 5674 5672 5670 5667 5664 5661 5657 5654 5650 5646 5642 5638 5634 5630 5625 5621 5616 5612 5607 5603 5598 5595 5591 5588 5585 5582 5580 5577 5575 5572 5569 5566 5563 5559 5556
5678 5678 5677 5676 5675 5673 5672 5670 5668 5666 5663 5660 5657 5654 5651 5647 5644 5640 5636 5632 5629 5625 5620 5616 5612 5608 5603 5599 5595 5591 5587 5584 5580 5577 5573 5570 5567 5563 5559 5556 5551 5547 5542
5672 5672 5671 5670 5668 5667 5665 5664 5662 5659 5657 5654 5651 5648 5645 5641 5638 5634 5631 5627 5623 5619 5615 5611 5607 5602 5598 5594 5590 5585 5581 5577 5573 5569 5565 5561 5557 5552 5548 5543 5538 5533 5527
5666 5665 5664 5664 5662 5661 5659 5657 5655 5653 5650 5648 5645 5642 5639 5635 5632 5629 5625 5621 5617 5613 5609 5605 5601 5596 5592 5587 5583 5578 5574 5569 5565 5560 5556 5551 5546 5541 5536 5530 5525 5519 5512
5659 5659 5658 5657 5656 5655 5653 5651 5649 5647 5644 5641 5638 5635 5632 5629 5626 5622 5619 5615 5611 5607 5603 5598 5594 5589 5585 5580 5575 5570 5565 5560 5555 5550 5545 5540 5534 5529 5523 5516 5510 5503 5497
5653 5653 5652 5651 5650 5648 5646 5644 5642 5640 5638 5635 5632 5629 5626 5623 5619 5616 5612 5608 5604 5600 5595 5591 5586 5581 5577 5571 5566 5561 5556 5550 5545 5540 5534 5528 5522 5515 5509 5502 5495 5488 5480
5646 5646 5645 5644 5643 5641 5640 5638 5636 5633 5631 5628 5625 5622 5619 5616 5612 5608 5605 5601 5596 5592 5587 5583 5578 5573 5568 5562 5557 5551 5546 5540 5534 5528 5522 5515 5509 5501 5494 5487 5479 5472 5464
5639 5639 5638 5637 5636 5634 5633 5631 5628 5626 5624 5621 5618 5615 5612 5609 5605 5601 5597 5593 5588 5584 5579 5574 5569 5564 5559 5553 5547 5541 5535 5529 5523 5516 5509 5502 5495 5487 5479 5471 5464 5456 5449
5632 5631 5630 5629 5628 5627 5625 5623 5621 5619 5616 5613 5611 5608 5604 5601 5597 5593 5589 5585 5580 5576 5571 5566 5560 5555 5549 5543 5537 5531 5524 5518 5511 5504 5496 5489 5480 5472 5464 5455 5448 5441 5434
5624 5623 5622 5621 5620 5619 5617 5615 5613 5611 5608 5605 5603 5600 5596 5593 5589 5585 5581 5576 5572 5567 5562 5556 5551 5545 5539 5533 5526 5519 5513 5506 5498 5491 5483 5474 5466 5457 5449 5441 5433 5426 5419
5615 5614 5614 5613 5612 5610 5608 5606 5604 5602 5600 5597 5594 5591 5588 5584 5580 5576 5572 5567 5563 5558 5553 5547 5541 5535 5529 5522 5515 5508 5501 5494 5486 5478 5469 5460 5452 5443 5434 5426 5419 5411 5405
5606 5606 5605 5604 5603 5601 5600 5598 5596 5594 5591 5588 5585 5582 5579 5575 5571 5567 5563 5558 5554 5549 5543 5538 5532 5525 5519 5512 5505 5497 5490 5482 5473 5465 5456 5447 5438 5429 5421 5413 5405 5398 5391
5597 5596 5596 5595 5594 5592 5590 5589 5587 5585 5582 5579 5576 5573 5570 5566 5562 5558 5554 5549 5544 5539 5534 5528 5522 5515 5508 5501 5494 5486 5478 5469 5461 5452 5442 5433 5424 5416 5408 5399 5392 5385 5379
5587 5587 5586 5585 5584 5583 5581 5580 5578 5576 5573 5570 5567 5564 5561 5557 5553 5549 5544 5540 5535 5529 5524 5518 5511 5505 5498 5490 5482 5474 5466 5457 5448 5439 5430 5420 5411 5402 5394 5387 5379 5373 5367
5577 5577 5576 5576 5575 5573 5572 5570 5568 5566 5564 5561 5558 5554 5551 5547 5543 5539 5535 5530 5525 5519 5513 5507 5501 5494 5487 5479 5471 5463 5454 5445 5437 5427 5418 5408 5399 5390 5382 5375 5368 5362 5356
5567 5567 5566 5566 5565 5564 5562 5561 5559 5556 5554 5551 5548 5545 5541 5537 5534 5529 5525 5520 5515 5509 5503 5497 5490 5483 5476 5469 5461 5453 5444 5435 5426 5416 5407 5397 5388 5379 5372 5365 5358 5352 5346
5556 5556 5556 5556 5555 5554 5552 5551 5549 5546 5544 5541 5538 5535 5531 5528 5524 5519 5515 5510 5504 5499 5493 5486 5480 5473 5465 5458 5450 5442 5433 5424 5415 5406 5396 5387 5378 5370 5363 5356 5350 5344 5338
5546 5546 5546 5546 5545 5544 5542 5541 5539 5537 5534 5531 5528 5525 5522 5518 5514 5509 5504 5499 5494 5488 5482 5476 5469 5462 5455 5447 5439 5431 5422 5413 5404 5395 5387 5378 5370 5362 5354 5348 5342 5336 5330
5537 5537 5536 5536 5535 5534 5532 5531 5529 5527 5524 5522 5519 5516 5512 5508 5504 5499 5494 5489 5484 5478 5472 5466 5459 5452 5445 5437 5429 5420 5411 5402 5393 5384 5376 5368 5361 5353 5346 5340 5334 5328 5322